Location: Rooftop Observatory
(39.0308°N, 87.1711°W)
Time: 07:19:13
(UTC-06:00)

Daily predictions for brighter satellites

Satellite Brightness Start Highest point End
(mag) Time Altitude Azimuth Time Altitude Azimuth Time Altitude Azimuth
Meteor 1-28 Rocket 4.0 16:51:11 10° NNE 16:54:29 30° E 16:57:48 10° SSE
CZ-2C R/B 4.4 16:52:02 10° NNE 16:56:07 33° E 17:00:13 10° SSE
Cosmos 304 Rocket 3.8 16:54:04 10° N 16:58:50 60° ENE 17:03:33 10° SSE
Cosmos 1606 3.8 16:56:30 10° SE 16:59:35 24° E 17:02:40 10° NE
Lacrosse 5 4.1 17:01:12 10° NW 17:03:26 13° NNW 17:05:41 10° N
Cosmos 1908 Rocket 3.9 17:01:04 10° N 17:05:12 42° E 17:09:18 10° SSE
COSMOS 2455 3.5 16:59:35 10° SW 17:05:29 57° WNW 17:11:25 10° NNE
Cosmos 1733 Rocket 3.4 17:01:03 10° N 17:05:30 74° W 17:09:56 10° S
Cosmos 1484 Rocket 2.8 17:03:15 10° SSE 17:07:03 60° ENE 17:10:56 10° N
Cosmos 1814 Rocket 4.1 17:02:02 10° NNW 17:07:25 84° ENE 17:12:46 10° SSE
CZ-4 R/B 1.6 17:05:08 10° SE 17:08:48 42° ENE 17:12:26 10° N
SL-27 R/B 2.9 17:08:03 10° N 17:11:10 35° ENE 17:14:16 10° SE
IRAS Rocket 4.5 17:05:53 10° SSE 17:11:25 78° WSW 17:16:57 10° NNW
CSL-04 Rocket 3.7 17:07:39 10° SSE 17:12:56 89° E 17:18:18 10° NNW
Cosmos 540 Rocket 4.1 17:08:35 10° N 17:13:13 32° ENE 17:17:48 10° SE
Cosmos 2233 Rocket 4.0 17:09:36 10° S 17:15:52 88° E 17:22:07 10° N
Cosmos 1862 Rocket 4.4 17:12:23 10° SSW 17:16:43 55° W 17:21:07 10° N
USA 234 4.0 17:11:28 10° ENE 17:17:23 36° SE 17:23:16 10° SSW
Cosmos 1503 Rocket 4.4 17:12:25 10° S 17:17:23 44° ESE 17:22:20 10° NNE
Cosmos 44 4.3 17:14:12 10° N 17:18:03 24° NE 17:22:02 10° ESE
Cosmos 2082 Rocket 2.7 17:13:47 10° N 17:19:02 37° ENE 17:24:14 10° SE
Ariane Rocket 3.0 17:14:46 10° SSE 17:19:51 89° WSW 17:24:58 10° NNW
Cosmos 841 Rocket 3.5 17:20:56 10° NNW 17:26:14 83° ENE 17:31:29 10° SSE
ERS-2 2.7 17:23:01 10° SE 17:26:24 35° ENE 17:29:47 10° N
BREEZE-M DEB (TANK) 3.9 17:25:05 10° NNW 17:26:38 14° NNE 17:27:37 13° NE
Sich 1 Rocket 3.6 17:22:29 10° N 17:26:54 63° E 17:31:19 10° SSE
Meteor 1-20 Rocket 4.1 17:21:31 10° N 17:27:04 71° E 17:32:30 10° SSE
Okean 1-7 3.3 17:23:13 10° SSE 17:27:22 45° E 17:31:35 10° NNE
AQUARIUS 4.3 17:24:41 10° S 17:29:10 79° WSW 17:33:41 10° NNW
Meteor 1-25 Rocket 4.3 17:24:11 10° N 17:30:03 84° E 17:35:50 10° S
ALOS 3.1 17:28:07 10° SE 17:32:07 29° ENE 17:36:06 10° N
Cosmos 1782 2.7 17:29:15 10° S 17:33:14 66° E 17:37:14 10° NNE
Cosmos 405 Rocket 3.4 17:31:00 10° SSE 17:34:20 30° E 17:36:33 17° NE
SMAP 3.7 17:34:47 10° S 17:39:22 60° W 17:43:59 10° NNW
Cosmos 1633 2.5 17:43:02 10° N 17:46:43 85° E 17:50:23 10° S
BREEZE-M DEB (TANK) 4.0 17:40:00 10° WNW 17:47:43 46° SW 17:50:58 10° SSE
Cosmos 1782 Rocket 3.4 17:45:34 10° N 17:49:55 79° E 17:54:17 10° S
USA 116 4.4 17:46:57 10° N 17:51:16 58° WNW 17:55:01 10° SSW
CZ-4C R/B 3.4 17:46:38 10° NNW 17:53:14 38° NE 17:58:04 20° ESE
Meteor 1-27 Rocket 4.0 17:48:40 10° SSE 17:54:17 48° E 17:59:58 10° NNE
YAOGAN 1 2.7 17:50:11 10° S 17:54:30 76° WSW 17:58:51 10° NNW
CENTAUR R/B 4.5 17:49:56 10° W 17:54:46 22° NW 18:00:04 10° NNE
COSMO-SKYMED 1 2.5 17:51:52 10° NNE 17:56:14 83° ESE 18:00:34 10° S
Cosmos 1354 Rocket 4.1 17:51:18 10° SSW 17:56:35 81° WNW 18:01:52 10° NNE
FENGYUN 3A 3.7 17:51:42 10° SSE 17:56:56 52° ENE 18:02:10 10° N
Cosmos 1891 Rocket 4.4 17:52:52 10° S 17:59:00 71° E 18:05:04 10° NNE
SPOT 3 Rocket 3.4 17:57:49 10° SSE 18:02:59 70° ENE 18:08:11 10° N
USA 229 DEB 4.3 17:57:36 10° S 18:03:27 33° ESE 18:05:14 29° E
USA 229 4.3 17:57:44 10° S 18:03:34 32° ESE 18:05:17 29° E
Meteor 1-10 Rocket 4.3 17:58:27 10° S 18:04:06 83° W 18:09:56 10° N
Tiangong 1 2.8 18:08:13 10° SSW 18:09:26 20° S 18:09:26 20° S
Cosmos 1833 Rocket 2.8 18:07:11 10° NNW 18:12:48 79° WSW 18:18:25 10° SSE
Cosmos 2369 Rocket 3.8 18:09:37 10° SSE 18:11:27 17° SE 18:11:27 17° SE
Nadezhda 4 Rocket 3.9 18:09:57 10° N 18:15:59 56° E 18:21:57 10° SSE
Cosmos 2221 Rocket 4.3 18:11:55 10° SSW 18:16:13 53° W 18:20:32 10° N
Cosmos 2297 4.3 18:12:53 10° SW 18:18:30 58° WNW 18:23:48 12° NNE
OAO 3 Rocket 4.0 18:15:58 10° SW 18:20:33 40° SSE 18:21:32 36° SE
Cosmos 2034 Rocket 4.0 18:14:48 10° S 18:21:10 90° WNW 18:27:34 10° N
Cosmos 2278 Rocket 4.3 18:17:52 10° WSW 18:22:20 23° NW 18:26:50 10° N
Meteor 2-20 4.3 18:21:09 10° N 18:27:17 87° E 18:33:20 10° S
Timation 2 Rocket 4.1 18:22:11 10° NNW 18:28:51 58° ENE 18:31:12 38° ESE
NOAA 12 4.2 18:23:59 10° S 18:29:18 77° WSW 18:34:38 10° NNW
Cosmos 1092 Rocket 4.0 18:28:02 10° N 18:34:03 54° E 18:40:05 10° SSE
Okean 2 Rocket 4.0 18:30:34 10° NNW 18:34:57 50° W 18:39:18 10° SSW
BREEZE-M R/B 3.8 18:32:00 10° WNW 18:35:03 45° SW 18:37:04 28° SSE
Cosmos 1441 Rocket 4.0 18:31:52 10° SSW 18:35:44 51° WNW 18:36:58 36° NNW
Cosmos 44 Rocket 3.3 18:30:51 10° NNW 18:35:45 80° WSW 18:37:32 40° SSE
Meteor 1-11 Rocket 3.7 18:30:06 10° N 18:35:58 84° W 18:41:40 10° S
Thor Agena Rocket 3.5 18:36:30 61° SE 18:36:30 61° SE 18:41:15 10° S
Cosmos 405 4.0 18:35:58 10° NNW 18:39:25 46° W 18:42:52 10° S
Cosmos 292 Rocket 4.3 18:37:45 10° NNW 18:42:24 56° WSW 18:47:03 10° S
PKM 4.4 18:36:50 10° SW 18:44:48 70° NW 18:45:04 67° NNW
Cosmos 968 Rocket 4.1 18:53:22 10° SW 18:58:25 53° WNW 18:59:38 43° NNW
Cosmos 44 4.4 18:54:54 10° NW 18:59:22 42° WSW 19:01:17 29° SSW
USA 234 3.5 18:58:41 45° NNE 19:00:34 62° NW 19:06:59 10° WSW
Cosmos 2082 Rocket 4.0 18:58:07 10° NW 19:02:57 29° WSW 19:07:44 10° SSW
ALOS 4.3 19:05:33 10° SSW 19:09:29 27° W 19:13:25 10° NW
CZ-4C R/B 3.5 19:34:57 10° NW 19:42:07 54° WSW 19:43:23 49° SSW
Cosmos 2369 Rocket 4.5 19:52:02 10° SW 19:53:19 17° SW 19:53:19 17° SW
